Change the Weather History Date:

Tuesday, April 15, 2014

  Actual Average (KBKV) Record (KBKV)
Temperature  
Mean Temperature 68 °F -  
Max Temperature 80 °F 79 °F 90 °F (2013)
Min Temperature 53 °F 52 °F 37 °F (2004)
Cooling Degree Days 2    
Growing Degree Days 18 (Base 50)    
Moisture  
Dew Point 64 °F    
Average Humidity 87    
Maximum Humidity 100    
Minimum Humidity 61    
Precipitation  
Precipitation 1.00 in - - ()
Sea Level Pressure  
Sea Level Pressure 29.87 in    
Wind  
Wind Speed 4 mph (West)    
Max Wind Speed 17 mph    
Max Gust Speed 41 mph    
Visibility 8 miles    
Events Rain , Thunderstorm    
Averages and records for this station are not official NWS values.
T = Trace of Precipitation, MM = Missing Value Source: NWS Daily Summary

Daily Weather History Graph

Daily Weather History Graph

Search for Another Location

Airport or City:

Trip Planner

Search our weather history database for the weather conditions in past years. The results will help you decide how hot, cold, wet, or windy it might be!

Date:

Astronomy

Apr. 15, 2014 Rise Set
Actual Time 7:04 AM EDT 7:56 PM EDT
Civil Twilight 6:40 AM EDT 8:20 PM EDT
Nautical Twilight 6:11 AM EDT 8:49 PM EDT
Astronomical Twilight 5:42 AM EDT 9:18 PM EDT
Moon 8:32 PM EDT (4/15) 7:12 AM EDT (4/15)
Length of Visible Light 13h 40m
Length of Day
12h 51m
Full, 100% of the Moon is Illuminated
Apr 15
Full
Apr 22
Last Quarter
Apr 29
New
May 6
First Quarter
May 14
Full

Hourly Weather History & Observations

Time (EDT) Temp. Heat Index Dew Point Humidity Pressure Visibility Wind Dir Wind Speed Gust Speed Precip Events Conditions
12:15 AM 66.2 °F - 62.6 °F 88% 29.89 in 10.0 mi Calm Calm - N/A   Scattered Clouds
12:35 AM 64.4 °F - 62.6 °F 94% 29.89 in 10.0 mi Calm Calm - N/A   Scattered Clouds
12:55 AM 64.4 °F - 62.6 °F 94% 29.89 in 7.0 mi Calm Calm - N/A   Scattered Clouds
1:15 AM 64.4 °F - 62.6 °F 94% 29.89 in 7.0 mi Calm Calm - N/A   Scattered Clouds
1:35 AM 64.4 °F - 62.6 °F 94% 29.89 in 7.0 mi Calm Calm - N/A   Scattered Clouds
1:55 AM 64.4 °F - 62.6 °F 94% 29.88 in 7.0 mi Calm Calm - N/A   Clear
2:15 AM 64.4 °F - 62.6 °F 94% 29.88 in 7.0 mi Calm Calm - N/A   Clear
2:35 AM 62.6 °F - 62.6 °F 100% 29.88 in 7.0 mi Calm Calm - N/A   Clear
2:55 AM 64.4 °F - 62.6 °F 94% 29.88 in 7.0 mi Calm Calm - N/A   Scattered Clouds
3:15 AM 64.4 °F - 62.6 °F 94% 29.87 in 7.0 mi Calm Calm - N/A   Scattered Clouds
3:35 AM 64.4 °F - 62.6 °F 94% 29.86 in 10.0 mi Calm Calm - N/A   Clear
3:55 AM 64.4 °F - 62.6 °F 94% 29.85 in 10.0 mi Calm Calm - N/A   Clear
4:15 AM 62.6 °F - 62.6 °F 100% 29.85 in 10.0 mi Calm Calm - N/A   Clear
4:35 AM 64.4 °F - 62.6 °F 94% 29.85 in 7.0 mi Calm Calm - N/A   Clear
4:55 AM 62.6 °F - 62.6 °F 100% 29.85 in 7.0 mi Calm Calm - N/A   Clear
5:15 AM 64.4 °F - 64.4 °F 100% 29.84 in 7.0 mi Calm Calm - N/A   Clear
5:35 AM 64.4 °F - 64.4 °F 100% 29.84 in 7.0 mi Calm Calm - N/A   Clear
5:55 AM 64.4 °F - 64.4 °F 100% 29.84 in 7.0 mi Calm Calm - N/A   Clear
6:15 AM 64.4 °F - 64.4 °F 100% 29.83 in 7.0 mi Calm Calm - N/A   Scattered Clouds
6:35 AM 64.4 °F - 64.4 °F 100% 29.83 in 7.0 mi Calm Calm - N/A   Scattered Clouds
6:55 AM 64.4 °F - 64.4 °F 100% 29.84 in 5.0 mi Calm Calm - N/A   Mostly Cloudy
7:15 AM 64.4 °F - 62.6 °F 94% 29.84 in 3.0 mi Calm Calm - N/A   Scattered Clouds
7:35 AM 64.4 °F - 64.4 °F 100% 29.84 in 5.0 mi Calm Calm - N/A   Scattered Clouds
7:55 AM 69.8 °F - 68.0 °F 94% 29.84 in 7.0 mi Calm Calm - N/A   Mostly Cloudy
8:15 AM 71.6 °F - 68.0 °F 88% 29.84 in 10.0 mi SSE 4.6 mph - N/A   Scattered Clouds
8:35 AM 71.6 °F - 69.8 °F 94% 29.84 in 10.0 mi SSE 4.6 mph - N/A   Clear
8:55 AM 73.4 °F - 69.8 °F 88% 29.85 in 10.0 mi South 6.9 mph - N/A   Clear
9:15 AM 77.0 °F - 68.0 °F 74% 29.85 in 10.0 mi SSW 3.5 mph - N/A   Scattered Clouds
9:35 AM 78.8 °F - 68.0 °F 69% 29.85 in 10.0 mi South 5.8 mph - N/A   Scattered Clouds
9:55 AM 80.6 °F 83.2 °F 68.0 °F 65% 29.84 in 10.0 mi SSW 5.8 mph 17.3 mph N/A   Scattered Clouds
10:15 AM 80.6 °F 83.2 °F 68.0 °F 65% 29.83 in 10.0 mi South 6.9 mph - N/A   Clear
10:35 AM 80.6 °F 82.7 °F 66.2 °F 61% 29.83 in 10.0 mi South 3.5 mph - N/A   Mostly Cloudy
10:55 AM 78.8 °F - 66.2 °F 65% 29.84 in 10.0 mi SSW 5.8 mph - N/A   Overcast
11:15 AM 78.8 °F - 68.0 °F 69% 29.86 in 10.0 mi WSW 8.1 mph - N/A Rain , Thunderstorm Light Thunderstorms and Rain
11:35 AM 71.6 °F - 68.0 °F 88% 29.90 in 1.0 mi WSW 17.3 mph 41.4 mph 0.57 in Rain , Thunderstorm Heavy Thunderstorms and Rain
11:55 AM 71.6 °F - 69.8 °F 94% 29.87 in 1.5 mi SW 5.8 mph - 0.95 in Rain , Thunderstorm Heavy Thunderstorms and Rain
12:15 PM 73.4 °F - 71.6 °F 94% 29.86 in 5.0 mi WSW 10.4 mph 20.7 mph 0.02 in Rain , Thunderstorm Light Thunderstorms and Rain
12:55 PM 75.2 °F - 71.6 °F 89% 29.86 in 10.0 mi SW 9.2 mph 20.7 mph 0.02 in   Overcast
1:15 PM 75.2 °F - 71.6 °F 89% 29.83 in 10.0 mi SSW 8.1 mph 18.4 mph N/A   Overcast
1:55 PM 75.2 °F - 71.6 °F 89% 29.82 in 10.0 mi SW 5.8 mph 16.1 mph N/A   Overcast
2:15 PM 75.2 °F - 71.6 °F 89% 29.83 in 7.0 mi WSW 9.2 mph 17.3 mph N/A Rain Light Rain
2:35 PM 75.2 °F - 71.6 °F 89% 29.82 in 7.0 mi SSW 9.2 mph 17.3 mph N/A Rain Light Rain
2:55 PM 73.4 °F - 71.6 °F 94% 29.82 in 5.0 mi WSW 11.5 mph 19.6 mph 0.03 in Rain Rain
3:15 PM 73.4 °F - 69.8 °F 88% 29.82 in 7.0 mi WSW 11.5 mph 18.4 mph N/A   Overcast
3:35 PM 73.4 °F - 69.8 °F 88% 29.81 in 7.0 mi WSW 10.4 mph 19.6 mph N/A   Overcast
3:55 PM 73.4 °F - 69.8 °F 88% 29.81 in 7.0 mi WSW 15.0 mph 25.3 mph N/A   Overcast
4:15 PM 71.6 °F - 68.0 °F 88% 29.80 in 10.0 mi WSW 11.5 mph 20.7 mph N/A   Overcast
4:35 PM 71.6 °F - 68.0 °F 88% 29.81 in 10.0 mi WSW 13.8 mph 25.3 mph N/A   Overcast
4:55 PM 71.6 °F - 68.0 °F 88% 29.80 in 10.0 mi West 15.0 mph 23.0 mph N/A   Overcast
5:15 PM 69.8 °F - 66.2 °F 88% 29.82 in 7.0 mi West 15.0 mph 26.5 mph N/A   Overcast
5:35 PM 69.8 °F - 66.2 °F 88% 29.82 in 7.0 mi WNW 13.8 mph 25.3 mph N/A   Overcast
5:55 PM 68.0 °F - 62.6 °F 83% 29.84 in 10.0 mi WNW 12.7 mph 24.2 mph N/A   Overcast
6:15 PM 68.0 °F - 62.6 °F 83% 29.85 in 10.0 mi WNW 15.0 mph 24.2 mph N/A   Overcast
6:35 PM 68.0 °F - 62.6 °F 83% 29.85 in 10.0 mi WNW 10.4 mph 21.9 mph N/A   Overcast
6:55 PM 68.0 °F - 60.8 °F 78% 29.86 in 10.0 mi WNW 12.7 mph 20.7 mph N/A   Overcast
7:15 PM 68.0 °F - 60.8 °F 78% 29.87 in 10.0 mi West 12.7 mph 21.9 mph N/A   Overcast
7:35 PM 68.0 °F - 60.8 °F 78% 29.88 in 10.0 mi West 13.8 mph 24.2 mph N/A   Overcast
7:55 PM 66.2 °F - 59.0 °F 78% 29.88 in 10.0 mi WNW 11.5 mph 18.4 mph N/A   Overcast
8:15 PM 66.2 °F - 59.0 °F 78% 29.89 in 10.0 mi West 10.4 mph 20.7 mph N/A   Overcast
8:35 PM 64.4 °F - 59.0 °F 83% 29.91 in 10.0 mi WNW 6.9 mph 18.4 mph N/A   Mostly Cloudy
8:55 PM 64.4 °F - 57.2 °F 77% 29.91 in 10.0 mi WNW 5.8 mph - N/A   Mostly Cloudy
9:15 PM 62.6 °F - 57.2 °F 82% 29.92 in 10.0 mi NW 4.6 mph - N/A   Scattered Clouds
9:35 PM 62.6 °F - 57.2 °F 82% 29.93 in 10.0 mi NW 4.6 mph - N/A   Scattered Clouds
9:55 PM 62.6 °F - 57.2 °F 82% 29.94 in 10.0 mi NW 4.6 mph - N/A   Mostly Cloudy
10:15 PM 62.6 °F - 57.2 °F 82% 29.96 in 10.0 mi NNW 8.1 mph - N/A   Mostly Cloudy
10:35 PM 60.8 °F - 53.6 °F 77% 29.97 in 10.0 mi NNW 10.4 mph 16.1 mph N/A   Scattered Clouds
10:55 PM 59.0 °F - 51.8 °F 77% 29.98 in 10.0 mi NNW 5.8 mph - N/A   Mostly Cloudy
11:15 PM 59.0 °F - 50.0 °F 72% 29.99 in 10.0 mi NW 6.9 mph - N/A   Mostly Cloudy
11:35 PM 55.4 °F - 50.0 °F 82% 30.01 in 10.0 mi NNW 9.2 mph 18.4 mph N/A   Overcast
11:55 PM 53.6 °F - 46.4 °F 77% 30.03 in 10.0 mi North 11.5 mph 17.3 mph N/A   Scattered Clouds